Weather in Staraya Tushka

Russia / Kirov Oblast     56°44′50″N   50°30′52″E
temp.,
°C
wind,
m/s
gust,
m/s
humid.,
%
clouds,
%
prec.,
mm/h
press.,
hPa
HPBL,
m
19 april, mon
mon1900:00+1ene61364100 0.0 1029587
03:00−1ene61363100 0.0 1030474
06:00−1ene613605 0.0 1031556
09:00+3e710405 0.0 10321206
12:00+6e79310 0.0 10311551
15:00+7e79290 0.0 10311662
18:00+4ene510400 0.0 1032456
21:000ene412560 0.0 1033277
20 april, tue
tue2000:00−1e411580 0.0 1033253
03:00−1e310580 0.0 1034239
06:000e49510 0.0 1034320
09:00+5ese57340 0.0 10341091
12:00+8se56290 0.0 10331416
15:00+9ese56290 0.0 10311425
18:00+6ese36450 0.0 1030145
21:00+2e410565 0.0 1030171
21 april, wed
wed2100:00+1ese4115961 0.0 1029225
03:00+1ese4125994 0.0 1029254
06:00+2se61553100 0.0 1027543
09:00+7se81541100 0.0 1026926
12:00+8se81538100 0.0 10241079
15:00+7sse81544100 0.1 10241252
18:00+3sse91882100 0.5 1024913
21:00+2sse81796100 3.5 1024734
22 april, thu
thu2200:00+2sse71497100 1.6 1024726
03:00+2sse61197100 1.8 1024635
06:00+2sse51197100 0.1 1024551
09:00+4sse51094100 0.1 1025541
12:00+5sse5995100 0.0 1025560
15:00+5sse5994100 0.0 1025602
18:00+4sse51096100 0.1 1026449
21:00+4s41096100 0.1 1027420
23 april, fri
fri2300:00+4sse4897100 0.0 1026237
03:00+3sse259877 0.0 1027134
06:00+4sse3695100 0.0 1027233
09:00+8sse3478100 0.0 1026584
12:00+10sse4468100 0.0 1026995
15:00+10se447199 0.0 1025904
18:00+7se4583100 0.0 1025414
21:00+5se3795100 0.0 1024283